Location: Brad
(46.1333°N, 22.7833°E)
Time: 11:08:40
(UTC+00:00)

IRIDIUM 114 - Pass Details

Date: 03 February 2023
Orbit: 776 x 779 km, 86.4° (Epoch: 20 March)

Event Time Altitude Azimuth Distance (km) Brightness Sun altitude
Rises 16:55:46 0° 360° (N) 3,275 7.5 -14.0°
Reaches altitude 10° 16:58:11 10° 5° (N) 2,343 6.7 -14.4°
Maximum altitude 17:03:20 55° 83° (E) 932 4.4 -15.3°
Drops below altitude 10° 17:08:26 10° 161° (SSE) 2,323 6.7 -16.2°
Sets 17:10:49 0° 166° (SSE) 3,246 7.5 -16.6°
